Time,TemperatureF,DewpointF,PressureIn,WindDirection,WindDirectionDegrees,WindSpeedMPH,WindSpeedGustMPH,Humidity,HourlyPrecipIn,Conditions,Clouds,dailyrainin,SoftwareType,DateUTC
2013-02-16 00:11:00,63.5,62.0,30.00,WNW,298,0.0,4.0,96,0.00,,,0.00,weatherlink.com 1.10,2013-02-16 05:11:00,
2013-02-16 00:25:00,63.4,62.0,30.01,West,278,3.0,4.0,96,0.00,,,0.00,weatherlink.com 1.10,2013-02-16 05:25:00,
2013-02-16 00:41:00,63.4,62.0,30.01,WNW,283,2.0,4.0,96,0.00,,,0.00,weatherlink.com 1.10,2013-02-16 05:41:00,
2013-02-16 00:55:00,63.3,62.0,30.00,WNW,298,2.0,3.0,96,0.00,,,0.00,weatherlink.com 1.10,2013-02-16 05:55:00,
2013-02-16 01:11:00,63.3,62.0,30.00,West,279,0.0,4.0,96,0.00,,,0.00,weatherlink.com 1.10,2013-02-16 06:11:00,
2013-02-16 01:25:00,63.3,62.0,29.99,West,281,0.0,0.0,96,0.00,,,0.00,weatherlink.com 1.10,2013-02-16 06:25:00,
2013-02-16 01:41:00,63.3,62.0,30.01,West,269,4.0,7.0,96,0.00,,,0.00,weatherlink.com 1.10,2013-02-16 06:41:00,
2013-02-16 01:56:00,63.4,62.0,29.99,West,264,3.0,5.0,96,0.00,,,0.00,weatherlink.com 1.10,2013-02-16 06:56:00,
2013-02-16 02:10:00,63.4,62.0,29.98,West,269,2.0,4.0,96,0.00,,,0.00,weatherlink.com 1.10,2013-02-16 07:10:00,
2013-02-16 02:27:00,63.2,62.0,29.98,WNW,285,3.0,6.0,96,0.00,,,0.00,weatherlink.com 1.10,2013-02-16 07:27:00,
2013-02-16 02:41:00,63.0,62.0,29.97,NNW,335,2.0,5.0,96,0.00,,,0.00,weatherlink.com 1.10,2013-02-16 07:41:00,
2013-02-16 02:57:00,63.0,62.0,29.96,WNW,286,1.0,4.0,96,0.00,,,0.00,weatherlink.com 1.10,2013-02-16 07:57:00,
2013-02-16 03:12:00,62.9,62.0,29.95,NW,305,1.0,3.0,96,0.00,,,0.00,weatherlink.com 1.10,2013-02-16 08:12:00,
2013-02-16 03:26:00,62.9,62.0,29.95,WNW,291,3.0,4.0,96,0.00,,,0.00,weatherlink.com 1.10,2013-02-16 08:26:00,
2013-02-16 03:41:00,63.0,62.0,29.96,NW,312,2.0,5.0,96,0.00,,,0.00,weatherlink.com 1.10,2013-02-16 08:41:00,
2013-02-16 03:57:00,63.0,62.0,29.96,WNW,293,2.0,7.0,95,0.00,,,0.00,weatherlink.com 1.10,2013-02-16 08:57:00,
2013-02-16 04:11:00,62.9,62.0,29.95,WNW,284,2.0,6.0,95,0.00,,,0.00,weatherlink.com 1.10,2013-02-16 09:11:00,
2013-02-16 04:27:00,62.9,61.0,29.95,WNW,291,3.0,5.0,94,0.00,,,0.00,weatherlink.com 1.10,2013-02-16 09:27:00,
2013-02-16 04:42:00,62.9,61.0,29.94,WNW,288,3.0,4.0,94,0.00,,,0.00,weatherlink.com 1.10,2013-02-16 09:42:00,
2013-02-16 04:56:00,62.8,61.0,29.94,WNW,295,0.0,4.0,94,0.00,,,0.00,weatherlink.com 1.10,2013-02-16 09:56:00,
2013-02-16 05:12:00,62.8,61.0,29.94,North,351,2.0,6.0,94,0.00,,,0.00,weatherlink.com 1.10,2013-02-16 10:12:00,
2013-02-16 05:28:00,62.9,61.0,29.94,WNW,290,0.0,5.0,94,0.00,,,0.00,weatherlink.com 1.10,2013-02-16 10:28:00,
2013-02-16 05:42:00,62.8,61.0,29.95,WNW,283,2.0,6.0,93,0.00,,,0.00,weatherlink.com 1.10,2013-02-16 10:42:00,
2013-02-16 05:58:00,62.7,61.0,29.95,WNW,283,3.0,7.0,93,0.00,,,0.00,weatherlink.com 1.10,2013-02-16 10:58:00,
2013-02-16 06:12:00,62.7,61.0,29.95,NW,312,1.0,5.0,93,0.00,,,0.00,weatherlink.com 1.10,2013-02-16 11:12:00,
2013-02-16 06:27:00,62.8,61.0,29.96,WNW,287,4.0,6.0,93,0.00,,,0.00,weatherlink.com 1.10,2013-02-16 11:27:00,
2013-02-16 06:42:00,62.6,61.0,29.96,West,267,2.0,4.0,93,0.00,,,0.00,weatherlink.com 1.10,2013-02-16 11:42:00,
2013-02-16 06:58:00,62.4,60.0,29.97,WNW,283,3.0,4.0,93,0.00,,,0.00,weatherlink.com 1.10,2013-02-16 11:58:00,
2013-02-16 07:13:00,62.4,60.0,29.97,West,270,2.0,5.0,93,0.00,,,0.00,weatherlink.com 1.10,2013-02-16 12:13:00,
2013-02-16 07:27:00,62.4,60.0,29.97,NW,309,1.0,5.0,93,0.00,,,0.00,weatherlink.com 1.10,2013-02-16 12:27:00,
2013-02-16 07:42:00,62.4,60.0,29.97,WNW,295,3.0,5.0,93,0.00,,,0.00,weatherlink.com 1.10,2013-02-16 12:42:00,
2013-02-16 07:58:00,62.4,60.0,29.97,WNW,302,2.0,8.0,93,0.00,,,0.00,weatherlink.com 1.10,2013-02-16 12:58:00,
2013-02-16 08:14:00,62.5,61.0,29.97,WNW,302,2.0,7.0,94,0.00,,,0.00,weatherlink.com 1.10,2013-02-16 13:14:00,
2013-02-16 08:28:00,62.7,61.0,29.98,WNW,283,6.0,7.0,94,0.00,,,0.00,weatherlink.com 1.10,2013-02-16 13:28:00,
2013-02-16 08:43:00,62.7,61.0,29.98,NW,312,6.0,7.0,94,0.00,,,0.00,weatherlink.com 1.10,2013-02-16 13:43:00,
2013-02-16 08:59:00,63.0,61.0,29.98,WNW,289,4.0,8.0,93,0.00,,,0.00,weatherlink.com 1.10,2013-02-16 13:59:00,
2013-02-16 09:13:00,63.3,61.0,29.98,WNW,298,0.0,4.0,93,0.00,,,0.00,weatherlink.com 1.10,2013-02-16 14:13:00,
2013-02-16 09:28:00,63.2,61.0,29.98,NNW,328,4.0,10.0,91,0.00,,,0.00,weatherlink.com 1.10,2013-02-16 14:28:00,
2013-02-16 09:44:00,63.7,61.0,29.98,NNW,328,2.0,8.0,91,0.00,,,0.00,weatherlink.com 1.10,2013-02-16 14:44:00,
2013-02-16 09:58:00,65.5,63.0,29.99,WNW,290,5.0,6.0,90,0.00,,,0.00,weatherlink.com 1.10,2013-02-16 14:58:00,
2013-02-16 10:14:00,65.7,62.0,29.99,WNW,298,2.0,9.0,88,0.00,,,0.00,weatherlink.com 1.10,2013-02-16 15:14:00,
2013-02-16 10:28:00,65.8,62.0,29.99,West,266,5.0,8.0,86,0.00,,,0.00,weatherlink.com 1.10,2013-02-16 15:28:00,
2013-02-16 10:44:00,66.0,62.0,30.00,WNW,295,2.0,11.0,86,0.00,,,0.00,weatherlink.com 1.10,2013-02-16 15:44:00,
2013-02-16 10:59:00,66.4,62.0,30.00,WNW,284,10.0,10.0,85,0.00,,,0.00,weatherlink.com 1.10,2013-02-16 15:59:00,
2013-02-16 11:14:00,66.6,62.0,30.00,West,272,6.0,11.0,84,0.00,,,0.00,weatherlink.com 1.10,2013-02-16 16:14:00,
2013-02-16 11:30:00,67.0,61.0,29.99,West,276,3.0,12.0,82,0.00,,,0.00,weatherlink.com 1.10,2013-02-16 16:30:00,
2013-02-16 11:45:00,68.0,63.0,29.99,West,273,4.0,11.0,83,0.00,,,0.00,weatherlink.com 1.10,2013-02-16 16:45:00,
2013-02-16 11:59:00,69.1,61.0,29.98,WNW,288,6.0,14.0,76,0.00,,,0.00,weatherlink.com 1.10,2013-02-16 16:59:00,
2013-02-16 12:15:00,69.7,59.0,29.97,WNW,283,6.0,16.0,69,0.00,,,0.00,weatherlink.com 1.10,2013-02-16 17:15:00,
2013-02-16 12:29:00,69.6,56.0,29.97,West,281,8.0,16.0,63,0.00,,,0.00,weatherlink.com 1.10,2013-02-16 17:29:00,
2013-02-16 12:44:00,70.0,59.0,29.96,West,262,8.0,15.0,69,0.00,,,0.00,weatherlink.com 1.10,2013-02-16 17:44:00,
2013-02-16 13:00:00,70.0,58.0,29.96,West,276,12.0,19.0,67,0.00,,,0.00,weatherlink.com 1.10,2013-02-16 18:00:00,
2013-02-16 13:14:00,70.0,52.0,29.95,WNW,284,9.0,22.0,54,0.00,,,0.00,weatherlink.com 1.10,2013-02-16 18:14:00,
2013-02-16 13:30:00,70.7,55.0,29.95,WNW,298,5.0,13.0,58,0.00,,,0.00,weatherlink.com 1.10,2013-02-16 18:30:00,
2013-02-16 13:46:00,69.7,54.0,29.95,WNW,293,9.0,15.0,58,0.00,,,0.00,weatherlink.com 1.10,2013-02-16 18:46:00,
2013-02-16 14:00:00,70.1,55.0,29.94,West,273,8.0,16.0,59,0.00,,,0.00,weatherlink.com 1.10,2013-02-16 19:00:00,
2013-02-16 14:14:00,70.0,49.0,29.95,WNW,285,4.0,13.0,47,0.00,,,0.00,weatherlink.com 1.10,2013-02-16 19:14:00,
2013-02-16 14:29:00,69.1,51.0,29.94,West,266,14.0,23.0,52,0.00,,,0.00,weatherlink.com 1.10,2013-02-16 19:29:00,
2013-02-16 14:45:00,69.0,52.0,29.94,West,271,9.0,25.0,55,0.00,,,0.00,weatherlink.com 1.10,2013-02-16 19:45:00,
2013-02-16 15:00:00,69.6,52.0,29.94,NW,321,8.0,19.0,54,0.00,,,0.00,weatherlink.com 1.10,2013-02-16 20:00:00,
2013-02-16 15:14:00,69.6,53.0,29.94,West,278,11.0,16.0,55,0.00,,,0.00,weatherlink.com 1.10,2013-02-16 20:14:00,
2013-02-16 15:30:00,69.3,51.0,29.95,WNW,293,19.0,22.0,52,0.00,,,0.00,weatherlink.com 1.10,2013-02-16 20:30:00,
2013-02-16 15:46:00,68.0,49.0,29.96,WNW,293,11.0,24.0,51,0.00,,,0.00,weatherlink.com 1.10,2013-02-16 20:46:00,
2013-02-16 16:01:00,67.8,49.0,29.96,West,269,10.0,21.0,51,0.00,,,0.00,weatherlink.com 1.10,2013-02-16 21:01:00,
2013-02-16 16:15:00,67.7,49.0,29.96,WNW,285,10.0,25.0,51,0.00,,,0.00,weatherlink.com 1.10,2013-02-16 21:15:00,
2013-02-16 16:32:00,67.9,51.0,29.96,WNW,288,5.0,17.0,55,0.00,,,0.00,weatherlink.com 1.10,2013-02-16 21:32:00,
2013-02-16 16:46:00,67.9,49.0,29.96,WNW,288,14.0,23.0,52,0.00,,,0.00,weatherlink.com 1.10,2013-02-16 21:46:00,
2013-02-16 17:00:00,67.8,50.0,29.97,West,276,13.0,16.0,53,0.00,,,0.00,weatherlink.com 1.10,2013-02-16 22:00:00,
2013-02-16 17:16:00,67.5,50.0,29.98,NW,323,7.0,18.0,53,0.00,,,0.00,weatherlink.com 1.10,2013-02-16 22:16:00,
2013-02-16 17:32:00,67.1,49.0,29.98,WNW,295,13.0,19.0,53,0.00,,,0.00,weatherlink.com 1.10,2013-02-16 22:32:00,
2013-02-16 17:46:00,66.8,49.0,29.98,WSW,252,9.0,24.0,54,0.00,,,0.00,weatherlink.com 1.10,2013-02-16 22:46:00,
2013-02-16 18:00:00,66.5,49.0,29.99,West,276,10.0,14.0,54,0.00,,,0.00,weatherlink.com 1.10,2013-02-16 23:00:00,
2013-02-16 18:16:00,66.0,51.0,29.99,WNW,285,3.0,15.0,58,0.00,,,0.00,weatherlink.com 1.10,2013-02-16 23:16:00,
2013-02-16 18:32:00,65.3,51.0,30.00,West,278,11.0,16.0,60,0.00,,,0.00,weatherlink.com 1.10,2013-02-16 23:32:00,
2013-02-16 18:46:00,64.6,52.0,30.01,WNW,291,6.0,21.0,63,0.00,,,0.00,weatherlink.com 1.10,2013-02-16 23:46:00,
2013-02-16 19:02:00,63.9,51.0,30.01,West,281,8.0,21.0,63,0.00,,,0.00,weatherlink.com 1.10,2013-02-17 00:02:00,
2013-02-16 19:17:00,63.3,50.0,30.02,WNW,291,8.0,17.0,63,0.00,,,0.00,weatherlink.com 1.10,2013-02-17 00:17:00,
2013-02-16 19:31:00,62.7,50.0,30.04,WNW,288,11.0,19.0,63,0.00,,,0.00,weatherlink.com 1.10,2013-02-17 00:31:00,
2013-02-16 19:47:00,62.3,49.0,30.04,WNW,290,20.0,20.0,63,0.00,,,0.00,weatherlink.com 1.10,2013-02-17 00:47:00,
2013-02-16 20:03:00,61.8,49.0,30.05,NW,316,13.0,18.0,64,0.00,,,0.00,weatherlink.com 1.10,2013-02-17 01:03:00,
2013-02-16 20:16:00,61.3,49.0,30.06,SE,138,3.0,21.0,64,0.00,,,0.00,weatherlink.com 1.10,2013-02-17 01:16:00,
2013-02-16 20:32:00,60.4,48.0,30.07,WNW,295,8.0,20.0,63,0.00,,,0.00,weatherlink.com 1.10,2013-02-17 01:32:00,
2013-02-16 20:47:00,59.9,48.0,30.08,West,269,12.0,18.0,64,0.00,,,0.00,weatherlink.com 1.10,2013-02-17 01:47:00,
2013-02-16 21:03:00,58.4,47.0,30.09,WNW,291,10.0,21.0,65,0.00,,,0.00,weatherlink.com 1.10,2013-02-17 02:03:00,
2013-02-16 21:17:00,57.6,47.0,30.10,NNW,334,5.0,17.0,67,0.00,,,0.00,weatherlink.com 1.10,2013-02-17 02:17:00,
2013-02-16 21:33:00,56.9,46.0,30.10,North,349,6.0,20.0,67,0.00,,,0.00,weatherlink.com 1.10,2013-02-17 02:33:00,
2013-02-16 21:47:00,56.4,45.0,30.11,WNW,284,9.0,20.0,66,0.00,,,0.00,weatherlink.com 1.10,2013-02-17 02:47:00,
2013-02-16 22:04:00,56.0,45.0,30.11,WNW,282,11.0,18.0,66,0.00,,,0.00,weatherlink.com 1.10,2013-02-17 03:04:00,
2013-02-16 22:17:00,55.6,43.0,30.11,NNW,332,13.0,30.0,64,0.00,,,0.00,weatherlink.com 1.10,2013-02-17 03:17:00,
2013-02-16 22:33:00,55.3,44.0,30.12,West,273,9.0,17.0,66,0.00,,,0.00,weatherlink.com 1.10,2013-02-17 03:33:00,
2013-02-16 22:47:00,54.8,44.0,30.13,NW,312,4.0,20.0,68,0.00,,,0.00,weatherlink.com 1.10,2013-02-17 03:47:00,
2013-02-16 23:04:00,54.2,44.0,30.13,West,271,9.0,13.0,69,0.00,,,0.00,weatherlink.com 1.10,2013-02-17 04:04:00,
2013-02-16 23:19:00,54.0,44.0,30.14,North,358,5.0,10.0,69,0.00,,,0.00,weatherlink.com 1.10,2013-02-17 04:19:00,
2013-02-16 23:33:00,53.9,43.0,30.13,WNW,293,7.0,18.0,68,0.00,,,0.00,weatherlink.com 1.10,2013-02-17 04:33:00,